• Join FlightAware (Why Join?)
  • Login
  • US Flag 
08:14PM EST


 

Airport Tracker/Info


-or-


 

Live Flight TrackerFlight Track Log ✈ DAL5259 ✈ 03-Aug-2014 ✈ KLGA - KORF

Flight Track Log - Related Links

Times and Time Zones

All times are in EDT time to prevent confusion due to time zone crossing. See the DAL5259 flight status page for this flight to view local times or setup timezone preferences in your user account.

Time Position Orientation Groundspeed Altitude Reporting Facility
EDT Latitude Longitude Course Direction KTS MPH feet Rate Location/Type
04:47PM 40.7667 -73.8500 90° East 157 181 900  Level New York TRACON
04:48PM 40.7667 -73.7833 90° East 232 267 2,400 1,850 Climbing New York TRACON
04:49PM 40.8333 -73.7833 360° North 266 306 4,600 2,017 Climbing New York TRACON
04:50PM 40.8000 -73.8667 242° Southwest 275 316 6,400 1,700 Climbing New York TRACON
04:51PM 40.7333 -73.9333 217° Southwest 267 307 8,000 1,950 Climbing New York TRACON
04:52PM 40.6833 -74.0000 225° Southwest 275 316 10,300 1,650 Climbing New York TRACON
04:53PM 40.6167 -74.0833 224° Southwest 336 387 11,300 1,200 Climbing New York TRACON
04:55PM 40.4583 -74.1778 204° Southwest 367 422 13,900 1,392 Climbing New York Center
04:56PM 40.3539 -74.1808 181° South 365 420 15,500 1,463 Climbing New York Center
04:57PM 40.2461 -74.2408 203° Southwest 373 429 16,900 1,550 Climbing New York Center
04:58PM 40.1411 -74.2628 189° South 371 427 18,600 1,866 Climbing New York Center
04:59PM 40.0439 -74.2361 168° South 376 433 20,600 2,703 Climbing New York Center
04:59PM 39.9917 -74.2728 208° Southwest 342 394 22,700 2,242 Climbing Washington Center
05:00PM 39.9300 -74.3606 228° Southwest 325 374 24,000 1,109 Climbing Washington Center
05:01PM 39.8581 -74.4508 224° Southwest 339 390 24,900 958 Climbing Washington Center
05:02PM 39.7839 -74.5383 222° Southwest 353 406 25,900 992 Climbing Washington Center
05:03PM 39.7056 -74.6339 223° Southwest 367 422 26,900 992 Climbing Washington Center
05:04PM 39.6269 -74.7267 222° Southwest 380 437 27,900 984 Climbing Washington Center
05:05PM 39.5486 -74.8192 222° Southwest 380 437 28,900 992 Climbing Washington Center
05:06PM 39.4700 -74.9142 223° Southwest 380 437 29,900 559 Climbing Washington Center
05:07PM 39.3892 -75.0089 222° Southwest 386 444 30,000 51 Climbing Washington Center
05:08PM 39.3019 -75.1033 220° Southwest 391 450 30,000  Level Washington Center
05:09PM 39.1917 -75.1578 201° Southwest 408 470 30,000  Level Washington Center
05:10PM 39.0836 -75.2067 199° South 413 475 30,000  Level Washington Center
05:11PM 38.9711 -75.2525 198° South 418 481 30,000 -248 Level Washington Center
05:12PM 38.8669 -75.2956 198° South 418 481 29,500 -893 Descending Washington Center
05:13PM 38.7650 -75.3414 199° South 404 465 28,200 -1,388 Descending Washington Center
05:14PM 38.6628 -75.3817 197° South 394 453 26,700 -1,488 Descending Washington Center
05:15PM 38.5608 -75.4272 199° South 389 448 25,200 -1,525 Descending Washington Center
05:16PM 38.4586 -75.4672 197° South 389 448 23,700 -1,525 Descending Washington Center
05:17PM 38.3586 -75.5097 198° South 384 442 22,200 -1,438 Descending Washington Center
05:18PM 38.2650 -75.5628 204° Southwest 379 436 20,800 -1,587 Descending Washington Center
05:19PM 38.1731 -75.6156 204° Southwest 372 428 19,000 -1,918 Descending Washington Center
05:20PM 38.0814 -75.6736 207° Southwest 366 421 16,900 -2,067 Descending Washington Center
05:21PM 38.0083 -75.7289 211° Southwest 356 410 14,900 -2,017 Descending Washington Center
05:22PM 37.9228 -75.7839 207° Southwest 356 410 12,900 -2,037 Descending Washington Center
05:23PM 37.8456 -75.8231 202° Southwest 322 371 11,200 -1,869 Descending Washington Center
05:23PM 37.8289 -75.8283 194° South 342 394 11,000 -1,029 Descending Washington Center
05:24PM 37.7600 -75.8808 211° Southwest 337 388 10,000 -732 Descending Washington Center
05:25PM 37.7139 -75.9017 200° South 323 372 10,000  Level Washington Center
05:25PM 37.6783 -75.9250 207° Southwest 327 376 10,000  Level Washington Center
05:26PM 37.6303 -75.9381 192° South 328 377 10,000 -300 Level Washington Center
05:26PM 37.5928 -75.9483 192° South 322 371 9,700 -800 Descending Washington Center
05:27PM 37.5447 -75.9586 190° South 297 342 9,200 -1,082 Descending Washington Center
05:27PM 37.5136 -75.9636 187° South 307 353 8,600 -1,377 Descending Washington Center
05:28PM 37.4717 -75.9739 191° South 268 308 7,800 -1,655 Descending Washington Center
05:28PM 37.4383 -75.9842 194° South 289 333 7,000 -1,574 Descending Washington Center
05:29PM 37.3967 -75.9892 185° South 273 314 6,200 -1,574 Descending Washington Center
05:29PM 37.3633 -75.9969 191° South 279 321 5,400 -1,574 Descending Washington Center
05:30PM 37.3236 -76.0019 186° South 268 308 4,600 -1,574 Descending Washington Center
05:30PM 37.2903 -76.0094 190° South 279 321 3,800 -1,418 Descending Washington Center
05:31PM 37.2567 -76.0172 190° South 256 295 3,300 -1,241 Descending Washington Center
05:31PM 37.2256 -76.0222 187° South 267 307 2,600 -1,180 Descending Washington Center
05:32PM 37.1942 -76.0272 187° South 205 236 2,100 -600 Descending Washington Center
05:32PM 37.1711 -76.0322 190° South 233 268 2,000 -98 Descending Washington Center
05:33PM 37.1461 -76.0375 190° South 170 196 2,000  Level Washington Center
05:34PM 37.1064 -76.0475 191° South 161 185 2,000  Level Washington Center
05:35PM 37.0647 -76.0553 188° South 154 177 2,000  Level Washington Center
05:36PM 37.0272 -76.0758 204° Southwest 157 181 2,000  Level Washington Center
05:36PM 36.9936 -76.1042 214° Southwest 154 177 2,000 -362 Level Washington Center
05:37PM 36.9581 -76.1378 217° Southwest 153 176 1,300 -700 Descending Washington Center
05:38PM 36.9286 -76.1686 220° Southwest 134 154 600 -712 Descending Washington Center